星链-35035 (STARLINK-35035)

导读 | 豆包AI

STARLINK-35035是美国太空探索技术公司(SpaceX)星链(Starlink)互联网星座计划中的一颗卫星,于2025年8月31日由美国发射升空。星链项目旨在构建全球卫星互联网,该卫星入轨后将进一步扩展星链星座覆盖范围,为全球用户提供低延迟、高速率的宽带互联网接入服务。

Basic Information
目录编号:
65407
目录名称:
STARLINK-35035
国际标识:
2025-192D
轨道中心:
EARTH
卫星名称:
星链-35035
卫星全名:
星链-35035 (STARLINK-35035)
卫星状态:
在轨 (已飞行195 天)
发射日期:
2025-08-31 UTC
国别 :
美国 (US)
星等 :
--
Orbit Information
数据来源 国际轨道数据 AOE轨道数据
星历时间 2026-03-13T18:05:09+0800
1天前
查看轨道信息
2026-03-11T09:00:00+0800
3天前
查看轨道信息
半长轴 6850.738km 6850.888km
偏心率 0.0001296 0.0001006
轨道倾角 53.159° 53.159°
近地点辐角 78.865° 58.158°
升交点赤经 215.153° 226.216°
平近点角 281.250° 144.549°
近地点 471.713km 472.061km
远地点 473.489km 473.441km
周期 94.052分钟 94.055分钟
每日圈数 15.31076 15.310258
Detailed Information
固有亮度:
5
最大亮度:
2.5
卫星平台:
Starlink V1.0
覆盖范围:
全球
运营商:
太空探索技术公司
运营商所在国:
美国
制造商(研发单位):
太空探索技术公司
制造商所在国:
美国
使用方式:
暂无
Satellite Introduction
Starlink 计划是 SpaceX 推出的全球卫星互联网项目,通过发射低轨道卫星,为全球尤其是偏远地区提供高速、低延迟的互联网服务。自 2019 年起,Starlink 已部署数千颗卫星,旨在缩小全球数字鸿沟,推动互联网普及。该项目还为军事、航空等行业提供通信支持,带来广泛经济效益。
2D Orbit Map
3D Orbit Map
Orbit Altitude Analysis Chart
Orbit Inclination Analysis Chart
Orbit Comprehensive Analysis Chart
View Comprehensive Chart